Preview of NWS' New Version of Forecast
This preview is not operational and should not be used for support decisions.

Regional Weather Roundup (RWR)

Issued by National Weather Service (NWS)

                            
000
ASUS44 KJAN 181110
RWRMS 

MISSISSIPPI HOURLY WEATHER ROUNDUP
NATIONAL WEATHER SERVICE JACKSON MS
600 AM CDT THU APR 18 2019

NOTE: "FAIR: INDICATES FEW OR NO CLOUDS BELOW 12,000 FEET WITH NO
SIGNIFICANT WEATHER AND/OR OBSTRUCTIONS TO VISIBILITY.

MSZ001>002-007>008-010>013-018>021-025>028-034>036-181200-
NORTHWEST MISSISSIPPI
  
CITY           SKY/WX    TMP DP  RH WIND       PRES   REMARKS
BATESVILLE     CLOUDY    64  61  88 S16G22    29.77S                  
CLARKSDALE     CLOUDY    66  66 100 S17       29.75R                  
CLEVELAND      CLOUDY    65  65  99 S16G22    29.76R                  
GREENWOOD      MOCLDY    63  60  90 S7        29.81R                  
GREENVILLE     CLOUDY    67  62  84 S14       29.76R                  
OLIVE BRANCH   CLOUDY    63  63 100 S14G22    29.75R FOG              
OXFORD         CLOUDY    61  59  94 VRB7G15   29.81R                  
TUNICA           N/A     64  61  88 S18G25    29.74R                  
WINONA         FAIR      61  60  99 CALM      29.82R                  
$$

MSZ003>006-009-014>017-022>024-029>033-037>039-181200-
NORTHEAST MISSISSIPPI
  
CITY           SKY/WX    TMP DP  RH WIND       PRES   REMARKS
ABERDEEN       CLOUDY    63  63 100 S7        29.86R                  
COLUMBUS AFB   MOCLDY    63  60  90 S7        29.84R                  
CORINTH        PTSUNNY   63  57  82 S10       29.78S                  
GOLDN TRIANGLE CLOUDY    63  61  93 S8        29.85R                  
STARKVILLE     CLOUDY    61  59  94 S6        29.87R                  
TUPELO         CLOUDY    62  58  86 S7        29.83R                  
$$

MSZ040-058-181200-
CENTRAL MISSISSIPPI
  
CITY           SKY/WX    TMP DP  RH WIND       PRES   REMARKS
JACKSON INTL   FAIR      63  60  90 S6        29.81R                  
JACKSON HAWKNS FAIR      63  62  97 SE3       29.81R                  
MADISON        FAIR      61  61 100 CALM      29.80R                  
MERIDIAN KEY   MOCLDY    67  63  87 S8        29.84R                  
MERIDIAN NAS   CLOUDY    66  63  90 SE5       29.85R                  
RAYMOND        FAIR      64  64 100 CALM      29.80R                  
VICKSBURG VKS  CLOUDY    68  64  88 S7        29.81R                  
$$

MSZ059>079-181200-
SOUTH MISSISSIPPI
  
CITY           SKY/WX    TMP DP  RH WIND       PRES   REMARKS
HATTIESBURG    CLOUDY    66  64  93 SE3       29.83R                  
LAUREL         PTSUNNY   65  64  95 S5        29.82R                  
MCCOMB         MOCLDY    62  59  90 SE3       29.79R                  
NATCHEZ        CLOUDY    68  64  87 S7        29.80R                  
PINE BELT      CLOUDY    64  63  96 CALM      29.84R                  
$$

MSZ080>082-181200-
COASTAL MISSISSIPPI
  
CITY           SKY/WX    TMP DP  RH WIND       PRES   REMARKS
BILOXI         FAIR      71  67  88 S13       29.81R                  
PASCAGOULA     FAIR      71  67  87 S7        29.83R                  
GULFPORT       FAIR      71  67  87 S10       29.80S                  
$$

LAZ007>009-015>016-023>026-181200-
NORTHEAST LOUISIANA
  
CITY           SKY/WX    TMP DP  RH WIND       PRES   REMARKS
BASTROP        CLOUDY    68  67  98 S6        29.78R                  
TALLULAH/VBURG CLOUDY    67  63  87 S8        29.80R                  
VIDALIA        CLOUDY    68  65  89 S5        29.79R                  
$$